Flag for Faroe Islands

Past Weather in Tórshavn, Faroe Islands — Yesterday and Last 2 Weeks

Now
48 °F

Low clouds.


Feels Like: 45 °F
Forecast: 53 / 50 °F
Wind: 8 mph from Northwest

Location: Soervaag / Vagar

Current Time: Jul 14, 2020 at 5:26:58 am

Latest Report: Jul 14, 2020 at 4:20 am


Visibility: N/A

Pressure: 29.80 "Hg

Humidity: 100%

Dew Point: 48 °F

Location of TórshavnLocation

Past Weather in Tórshavn — Graph

°F

Tórshavn Temperature Yesterday

Maximum temperature yesterday: 57 °F (at 3:50 pm)
Minimum temperature yesterday: 50 °F (at 12:20 am)
Average temperature yesterday: 52 °F

High & Low Weather Summary for the Past Weeks

 TemperatureHumidityPressure
High63 °F (Jun 29, 3:20 pm)100% (Jul 4, 7:50 pm)30.07 "Hg (Jul 4, 7:50 pm)
Low41 °F (Jul 3, 1:20 am)58% (Jul 3, 3:50 pm)29.27 "Hg (Jul 5, 4:50 am)
Average49 °F83%29.78 "Hg
* Reported Jun 29 3:20 am — Jul 14 3:50 am, Tórshavn. Weather by CustomWeather, © 2020

Note: Actual official high and low records may vary slightly from our data, if they occured in-between our weather recording intervals... More about our weather records

Tórshavn Weather History for the Previous 24 Hours

Scroll right to see more
 ConditionsComfort  
Time TempWeatherWind HumidityBarometerVisibility
3:50 am
Tue, Jul 14
48 °FLow clouds.8 mph100%29.80 "HgN/A
3:20 am48 °FOvercast.7 mph100%29.80 "HgN/A
2:50 am48 °FLow clouds.6 mph100%29.80 "HgN/A
2:20 am48 °FLow clouds.9 mph100%29.80 "HgN/A
1:50 am48 °FLow clouds.9 mph100%29.80 "HgN/A
12:50 am50 °FMostly cloudy.7 mph100%29.77 "HgN/A
12:20 am50 °FMostly cloudy.6 mph100%29.77 "HgN/A
11:50 pm
Mon, Jul 13
50 °FLow clouds.6 mph100%29.77 "HgN/A
11:20 pm50 °FPassing clouds.7 mph100%29.77 "HgN/A
10:50 pm50 °FFog.5 mph100%29.77 "Hg2 mi
10:20 pm50 °FFog.7 mph100%29.77 "Hg1 mi
9:50 pm52 °FFog.7 mph100%29.77 "Hg1 mi
9:20 pm52 °FPartly sunny.5 mph100%29.74 "HgN/A
8:50 pm52 °FLow clouds.8 mph100%29.74 "HgN/A
8:20 pm52 °FLow clouds.9 mph100%29.74 "Hg5 mi
7:50 pm52 °FFog.12 mph100%29.74 "Hg1 mi
7:20 pm52 °FFog.8 mph100%29.74 "Hg1 mi
6:50 pm52 °FFog.7 mph100%29.74 "Hg2 mi
6:20 pm52 °FLow clouds.8 mph100%29.74 "HgN/A
5:50 pm52 °FPartly sunny.7 mph100%29.74 "HgN/A
5:20 pm52 °FPartly sunny.8 mph100%29.74 "HgN/A
4:50 pm55 °FPartly sunny.5 mph94%29.71 "HgN/A
4:20 pm57 °FPartly sunny.3 mph88%29.74 "HgN/A
3:50 pm57 °FPartly sunny.6 mph94%29.74 "HgN/A
3:20 pm55 °FLow clouds.6 mph100%29.74 "HgN/A
2:50 pm55 °FMostly cloudy.7 mph94%29.71 "HgN/A
2:20 pm55 °FDrizzle. Mostly cloudy.6 mph94%29.74 "HgN/A
1:57 pm54 °FDrizzle. Mostly cloudy.6 mph100%29.74 "Hg2 mi
12:55 pm54 °FFog.7 mph100%29.74 "Hg2 mi
12:20 pm54 °FFog.8 mph100%29.74 "Hg1 mi
11:21 am52 °FFog.8 mph100%29.74 "Hg1 mi
10:50 am52 °FFog.8 mph100%29.74 "Hg1 mi
10:20 am52 °FFog.8 mph100%29.74 "Hg1 mi
9:50 am52 °FFog.8 mph94%29.74 "Hg1 mi
9:22 am52 °FDrizzle. Low clouds.8 mph100%29.74 "Hg1 mi
8:50 am52 °FDrizzle. Low clouds.7 mph100%29.74 "Hg1 mi
8:21 am52 °FDrizzle. Low clouds.10 mph100%29.74 "Hg1 mi
7:50 am52 °FFog.10 mph100%29.74 "Hg2 mi
7:20 am52 °FLow clouds.12 mph94%29.74 "Hg3 mi
6:50 am52 °FLow clouds.10 mph94%29.74 "Hg3 mi
6:20 am52 °FLow clouds.13 mph94%29.77 "HgN/A
5:50 am50 °FLow clouds.17 mph100%29.77 "HgN/A
5:20 am50 °FLight rain. Low clouds.20 mph100%29.77 "HgN/A
Weather by CustomWeather, © 2020

See weather overview